Home   Weather   Managua   Past weeks
Flag for Nicaragua

Past Weather in Managua, Nicaragua — Yesterday and Last 2 Weeks

Now
75 °F

Passing clouds.


Feels Like: 74 °F
Forecast: 81 / 76 °F
Wind: No wind

Location: Managua A. C. Sandino

Current Time: May 23, 2019 at 3:42:21 am

Latest Report: May 23, 2019 at 1:00 am


Visibility: 6 mi

Pressure: 29.80 "Hg

Humidity: 94%

Dew Point: 73 °F

Location of ManaguaLocation

Past Weather in Managua — Graph

°F

Managua Temperature Yesterday

Maximum temperature yesterday: 81 °F (at 12:00 am)
Minimum temperature yesterday: 75 °F (at 3:00 am)
Average temperature yesterday: 78 °F

High & Low Weather Summary for the Past Weeks

 TemperatureHumidityPressure
High99 °F (May 8, 1:00 pm)100% (May 22, 3:00 am)32.16 "Hg (May 22, 3:00 am)
Low75 °F (May 17, 8:00 pm)37% (May 8, 4:00 pm)29.65 "Hg (May 10, 4:00 pm)
Average85 °F70%29.80 "Hg
* Reported May 8 1:00 am — May 23 1:00 am, Managua. Weather by CustomWeather, © 2019

Note: Actual official high and low records may vary slightly from our data, if they occured in-between our weather recording intervals... More about our weather records

Advertising

Managua Weather History for the Previous 24 Hours

Scroll right to see more
 ConditionsComfort  
Time TempWeatherWind HumidityBarometerVisibility
1:00 am
Thu, May 23
75 °FPassing clouds.No wind94%29.80 "Hg6 mi
11:00 pm
Wed, May 22
75 °FThundershowers. Passing clouds.7 mph94%29.83 "Hg6 mi
10:00 pm75 °FThunderstorms. Passing clouds.5 mph94%29.83 "Hg6 mi
9:00 pm77 °FThunderstorms. Passing clouds.No wind94%29.80 "Hg6 mi
8:00 pm79 °FThundershowers. Passing clouds.7 mph89%29.77 "Hg6 mi
7:00 pm77 °FPassing clouds.7 mph94%29.74 "HgN/A
6:00 pm79 °FScattered clouds.7 mph94%29.74 "HgN/A
5:00 pm79 °FScattered clouds.9 mph94%29.71 "HgN/A
4:00 pm81 °FScattered clouds.12 mph89%29.71 "Hg4 mi
3:00 pm81 °FScattered clouds.7 mph89%29.71 "Hg6 mi
2:00 pm77 °FScattered clouds.7 mph94%29.74 "Hg6 mi
1:00 pm79 °FDrizzle. Partly sunny.9 mph89%29.77 "Hg6 mi
12:00 pm79 °FPartly sunny.9 mph89%29.80 "HgN/A
11:00 am79 °FDrizzle. Broken clouds.9 mph94%29.80 "Hg3 mi
10:00 am79 °FScattered clouds.12 mph94%29.80 "Hg6 mi
9:00 am79 °FScattered clouds.9 mph89%29.80 "Hg6 mi
8:00 am79 °FScattered clouds.7 mph89%29.80 "HgN/A
7:00 am77 °FScattered clouds.5 mph94%29.77 "HgN/A
6:00 am77 °FScattered clouds.5 mph94%29.77 "HgN/A
5:00 am75 °FPassing clouds.7 mph100%29.74 "Hg6 mi
4:00 am75 °FPassing clouds.7 mph100%29.74 "Hg6 mi
3:00 am75 °FRain. Partly cloudy.14 mph100%29.74 "Hg3 mi
Weather by CustomWeather, © 2019

See weather overview